Regional Weather Roundup
Issued by NWS

Home | Current Version | Previous Version | Graphics & Text | Print | Product List | Glossary On
Versions: 1 2 3 4 5 6 7 8 9 10 11 12 13 14 15 16 17 18 19 20 21 22 23 24 25 26 27 28 29 30 31 32 33 34 35 36 37 38 39 40 41 42 43 44 45 46 47 48 49 50
000
ASUS44 KMEG 012310
RWRTN
TENNESSEE HOURLY STATE WEATHER ROUNDUP
NATIONAL WEATHER SERVICE MEMPHIS TN
600 PM CDT MON JUN 01 2015

TNZ002-004-019-021-049-052-054-088>092-020000-
WEST TENNESSEE

CITY           SKY/WX    TMP DP  RH WIND       PRES   REMARKS
MEMPHIS INTL   MOSUNNY   73  59  60 N8        30.07S
NWS MEMPHIS      N/A     73 N/A N/A MISG        N/A
JACKSON        CLOUDY    71  62  73 N3        30.06S
DYERSBURG      CLOUDY    70  50  49 NW8       30.08S
PARIS          CLOUDY    64  59  82 N5        30.07S
LEXINGTON      CLOUDY    66  61  82 N3        30.05S
$$

TNZ008-025-027-028-033-062-065-066-020000-
NORTH MIDDLE TENNESSEE

CITY           SKY/WX    TMP DP  RH WIND       PRES   REMARKS
NASHVILLE      CLOUDY    66  63  88 N10       30.05R
CLARKSVILLE    CLOUDY    64  60  87 N12       30.06F
SMYRNA         CLOUDY    69  66  90 N9        30.05R
COOKEVILLE     PTSUNNY   72  66  83 N5        30.02S
CROSSVILLE     PTSUNNY   73  62  68 W6        30.05R
$$

TNZ061-075-076-078-094-096-097-020000-
SOUTH MIDDLE TENNESSEE

CITY           SKY/WX    TMP DP  RH WIND       PRES   REMARKS
FAYETTEVILLE   SUNNY    N/A N/A N/A MISG      30.03F
TULLAHOMA      SUNNY     66  63  88 NW5       30.04S
WINCHESTER     SUNNY     66  61  82 W3        30.04F
MCMINNVILLE    PTSUNNY   70  70 100 W8        30.04R
COLUMBIA       CLOUDY    68  64  88 CALM      30.04S
SHELBYVILLE    CLOUDY    73  66  78 NW9       30.03F
$$

TNZ017-018-042-046-047-020000-
NORTHEAST TENNESSEE

CITY           SKY/WX    TMP DP  RH WIND       PRES   REMARKS
TRI CITIES     PTSUNNY   69  66  90 NW6       30.06R
ELIZABETHTON   PTCLDY    68  64  88 CALM      30.05R
$$

TNZ012-013-036-069-073-074-020000-
CENTRAL EAST TENNESSEE

CITY           SKY/WX    TMP DP  RH WIND       PRES   REMARKS
KNOXVILLE      PTSUNNY   78  60  53 NW10      29.99S
OAK RIDGE      MOSUNNY   73  65  75 VRB3      30.02F
GATLINBURG     CLEAR     81  63  54 VRB7      29.99F
MORRISTOWN     CLEAR     73  63  68 N9        30.03S
$$

TNZ083-085-099-020000-
SOUTHEAST TENNESSEE

CITY           SKY/WX    TMP DP  RH WIND       PRES   REMARKS
CHATTANOOGA    CLOUDY    79  65  62 SW7       29.98F
$$

SKY/WX REPORTED AS FAIR MEANS FEW OR NO CLOUDS BELOW
12 THOUSAND FEET.



USA.gov is the U.S. government's official web portal to all federal, state and local government web resources and services.